Voltar ao catálogo

STARLINK-33753

AtivoComunicaçõesVLEO
NORAD 63443·PAYLOAD·🇺🇸 United States

Lançado Apr 4, 2025 de Vandenberg Space Force Base

Loading…

Próximas Passagens (próximas 24 horas)

TLE

AtualizadoSource: CelesTrak SupGP

Época: Sep 14, 2026, 20:51 UTC

1 63443C 25069L   26257.86923611 -.00015745  00000+0 -46547-3 0  2579
2 63443  53.1589 335.9700 0001337  77.0705  99.1716 15.34380198    16

Acompanhe STARLINK-33753 em tempo real com AllMySat

Download on the App Store